Location: Park Creek Village Mobile Home Park
(38.2885°N, 122.4714°W)
Time: 18:29:25
(UTC+00:00)

Cosmos 1844 Rocket - Pass Details

Date: 14 December 2019
Orbit: 825 x 844 km, 71.0° (Epoch: 20 January)

Event Time Altitude Azimuth Distance (km) Brightness Sun altitude
Rises 12:46:53 0° 173° (S) 3,355 6.0 -28.9°
Reaches altitude 10° 12:49:34 10° 163° (SSE) 2,424 5.3 -28.4°
Maximum altitude 12:54:20 30° 103° (ESE) 1,435 4.5 -27.5°
Drops below altitude 10° 12:59:07 10° 44° (NE) 2,431 5.5 -26.6°
Sets 13:01:48 0° 34° (NE) 3,368 6.1 -26.0°
